Total_Precipitation_Accumulation
0.12 0.21 0.24 0.24 0.22 0.18 0.14 0.12 0.21 0.25 0.36 0.43 0.43 0.55 0.68 0.80 0.79 0.78 0.65 0.53 0.54 0.51 0.57 0.64 0.66 0.73 0.68 0.63 0.63 0.73 0.91 1.03 1.14 1.13 1.08 1.04 1.04 1.03 0.98 1.07 1.12 1.18 1.22 1.21
0.16 0.19 0.24 0.27 0.25 0.18 0.13 0.11 0.16 0.24 0.37 0.47 0.54 0.62 0.66 0.61 0.54 0.52 0.47 0.36 0.35 0.44 0.51 0.51 0.51 0.55 0.47 0.49 0.58 0.69 0.80 0.90 1.03 1.14 1.12 1.04 1.01 1.03 1.00 1.08 1.13 1.17 1.17 1.23
0.24 0.23 0.24 0.34 0.33 0.24 0.15 0.14 0.20 0.32 0.47 0.61 0.52 0.51 0.57 0.53 0.52 0.51 0.46 0.31 0.26 0.30 0.39 0.41 0.44 0.42 0.45 0.53 0.64 0.75 0.86 0.92 1.03 1.14 1.19 1.15 1.07 1.13 1.13 1.19 1.26 1.24 1.20 1.20
0.30 0.41 0.50 0.37 0.30 0.29 0.28 0.26 0.27 0.39 0.41 0.52 0.52 0.58 0.67 0.63 0.58 0.46 0.40 0.32 0.25 0.25 0.28 0.35 0.41 0.48 0.55 0.66 0.81 0.88 0.94 1.01 1.13 1.23 1.24 1.24 1.26 1.32 1.42 1.48 1.48 1.45 1.39 1.31
0.45 0.58 0.50 0.44 0.32 0.36 0.40 0.53 0.54 0.61 0.55 0.51 0.51 0.58 0.65 0.56 0.48 0.46 0.38 0.34 0.32 0.29 0.36 0.44 0.48 0.52 0.68 0.84 1.00 1.05 1.03 1.08 1.19 1.31 1.38 1.45 1.50 1.51 1.56 1.63 1.59 1.54 1.54 1.57
0.57 0.71 0.70 0.60 0.47 0.46 0.57 0.98 0.81 0.74 0.70 0.60 0.59 0.68 0.70 0.62 0.55 0.50 0.43 0.41 0.40 0.39 0.47 0.57 0.63 0.68 0.81 0.91 1.00 1.13 1.19 1.31 1.48 1.64 1.68 1.73 1.87 1.95 1.86 1.77 1.66 1.70 1.71 1.73
0.72 0.77 0.82 0.72 0.66 0.67 1.05 1.29 0.98 0.83 0.79 0.76 0.84 0.85 0.79 0.69 0.65 0.59 0.51 0.50 0.47 0.47 0.55 0.68 0.79 0.88 1.00 1.13 1.22 1.21 1.29 1.44 1.65 1.80 1.88 1.95 2.09 2.17 2.15 2.13 2.10 2.03 1.94 1.92
0.85 1.01 1.15 0.82 0.78 1.14 1.36 1.16 1.16 1.13 1.05 0.93 0.87 0.83 0.77 0.69 0.67 0.61 0.58 0.60 0.59 0.59 0.70 0.84 0.97 1.02 1.12 1.18 1.21 1.24 1.30 1.42 1.55 1.69 1.72 1.80 2.02 2.14 2.21 2.24 2.21 2.12 2.04 1.91
1.06 1.18 1.10 0.88 0.94 1.14 1.25 1.39 1.32 1.22 1.21 1.05 0.98 0.88 0.77 0.68 0.63 0.59 0.57 0.60 0.61 0.66 0.84 1.00 1.12 1.20 1.27 1.20 1.27 1.32 1.38 1.50 1.61 1.70 1.78 1.87 1.92 1.92 2.00 2.09 2.09 2.01 2.00 1.93
1.19 1.25 1.17 1.01 0.86 0.84 0.98 1.09 1.06 1.03 1.04 1.02 0.99 0.92 0.81 0.67 0.56 0.53 0.53 0.48 0.52 0.61 0.72 0.82 0.92 1.03 1.17 1.26 1.34 1.41 1.48 1.52 1.59 1.70 1.74 1.76 1.88 1.96 2.02 2.12 2.22 2.13 2.02 1.94
1.40 1.29 1.12 1.18 1.10 0.99 1.04 1.12 1.05 0.97 0.93 0.93 0.90 0.86 0.71 0.63 0.56 0.51 0.49 0.48 0.51 0.61 0.66 0.73 0.78 0.86 0.96 1.06 1.19 1.29 1.36 1.42 1.47 1.51 1.59 1.66 1.71 1.79 1.81 1.87 1.86 1.83 1.78 1.78
1.59 1.41 1.28 1.27 1.15 1.04 1.10 1.07 1.10 1.11 1.08 0.89 0.79 0.81 0.75 0.67 0.58 0.55 0.55 0.54 0.57 0.61 0.62 0.66 0.71 0.84 0.94 1.03 1.18 1.32 1.42 1.44 1.40 1.38 1.43 1.48 1.51 1.49 1.47 1.39 1.36 1.32 1.32 1.33
1.25 1.12 1.13 1.15 1.10 0.99 0.99 0.95 0.92 0.94 0.94 0.86 0.79 0.73 0.73 0.69 0.63 0.57 0.52 0.51 0.55 0.61 0.60 0.63 0.67 0.78 0.86 0.96 1.08 1.20 1.29 1.33 1.32 1.31 1.37 1.37 1.39 1.42 1.44 1.36 1.25 1.17 1.15 1.13
1.05 0.99 0.98 0.96 0.92 0.91 0.88 0.81 0.72 0.69 0.70 0.70 0.71 0.69 0.67 0.66 0.64 0.63 0.61 0.56 0.54 0.53 0.54 0.58 0.66 0.72 0.80 0.90 0.99 1.06 1.11 1.18 1.25 1.32 1.36 1.40 1.42 1.47 1.57 1.64 1.57 1.39 1.21 1.11
1.07 0.97 0.89 0.75 0.73 0.77 0.75 0.66 0.57 0.56 0.63 0.66 0.58 0.53 0.52 0.49 0.47 0.50 0.49 0.49 0.50 0.51 0.58 0.62 0.68 0.73 0.80 0.93 1.01 1.02 1.02 1.03 1.05 1.12 1.19 1.25 1.26 1.31 1.39 1.49 1.52 1.42 1.27 1.14
1.14 1.01 0.82 0.69 0.73 0.78 0.72 0.68 0.59 0.52 0.52 0.57 0.56 0.48 0.42 0.40 0.41 0.41 0.43 0.45 0.55 0.60 0.67 0.73 0.80 0.78 0.84 0.94 1.02 1.05 1.00 0.98 0.97 0.97 0.99 0.99 1.01 1.07 1.17 1.28 1.33 1.26 1.16 1.04
1.14 1.08 0.91 0.78 0.72 0.74 0.70 0.66 0.57 0.49 0.43 0.44 0.44 0.40 0.36 0.37 0.38 0.40 0.42 0.45 0.51 0.56 0.64 0.73 0.79 0.80 0.89 0.96 1.00 1.02 0.98 0.93 0.90 0.89 0.87 0.87 0.90 0.95 0.99 1.02 1.07 1.03 0.96 0.83
1.00 0.95 0.87 0.80 0.72 0.70 0.69 0.63 0.56 0.51 0.48 0.46 0.41 0.37 0.38 0.44 0.52 0.55 0.54 0.54 0.54 0.54 0.55 0.61 0.68 0.75 0.87 0.99 1.04 1.01 0.91 0.81 0.75 0.72 0.75 0.78 0.80 0.87 0.92 0.92 0.89 0.84 0.78 0.62
0.86 0.81 0.81 0.80 0.78 0.77 0.72 0.66 0.60 0.54 0.48 0.45 0.44 0.45 0.48 0.54 0.62 0.65 0.62 0.66 0.75 0.79 0.70 0.62 0.65 0.65 0.72 0.89 1.02 1.03 0.93 0.81 0.72 0.66 0.66 0.67 0.70 0.79 0.84 0.81 0.73 0.67 0.62 0.58
0.89 0.91 0.94 0.93 0.89 0.86 0.78 0.69 0.64 0.58 0.50 0.45 0.45 0.48 0.53 0.58 0.65 0.71 0.71 0.70 0.74 0.84 0.83 0.76 0.65 0.58 0.62 0.76 0.95 0.93 0.87 0.79 0.70 0.59 0.59 0.64 0.66 0.71 0.74 0.74 0.68 0.63 0.60 0.58
0.95 1.03 1.04 0.95 0.88 0.79 0.71 0.65 0.63 0.61 0.56 0.54 0.56 0.60 0.65 0.66 0.65 0.73 0.82 0.76 0.66 0.72 0.81 0.79 0.68 0.59 0.57 0.69 0.86 0.89 0.83 0.74 0.64 0.54 0.52 0.56 0.59 0.64 0.68 0.69 0.65 0.60 0.59 0.60
1.06 1.15 1.06 0.89 0.81 0.73 0.63 0.57 0.54 0.53 0.52 0.56 0.61 0.68 0.82 0.88 0.81 0.77 0.72 0.70 0.69 0.79 0.83 0.76 0.67 0.58 0.51 0.57 0.68 0.78 0.75 0.68 0.62 0.54 0.47 0.48 0.55 0.62 0.64 0.63 0.61 0.58 0.57 0.59
0.99 0.98 0.91 0.75 0.64 0.55 0.47 0.45 0.44 0.44 0.46 0.54 0.65 0.80 1.01 1.03 0.97 0.99 0.84 0.64 0.65 0.75 0.76 0.71 0.63 0.53 0.47 0.48 0.55 0.63 0.65 0.64 0.59 0.51 0.42 0.43 0.47 0.51 0.54 0.50 0.52 0.53 0.50 0.45
0.75 0.72 0.63 0.52 0.47 0.45 0.46 0.45 0.42 0.42 0.45 0.53 0.59 0.73 0.99 1.15 0.99 0.77 0.72 0.69 0.68 0.66 0.64 0.63 0.56 0.48 0.46 0.44 0.46 0.53 0.59 0.61 0.58 0.51 0.43 0.43 0.44 0.45 0.48 0.47 0.46 0.43 0.38 0.38
0.67 0.58 0.49 0.45 0.47 0.52 0.55 0.54 0.54 0.52 0.57 0.62 0.61 0.65 0.80 1.02 1.04 0.78 0.63 0.58 0.60 0.58 0.57 0.60 0.60 0.57 0.48 0.41 0.40 0.47 0.53 0.56 0.56 0.51 0.47 0.47 0.44 0.46 0.47 0.44 0.43 0.41 0.40 0.41
0.62 0.54 0.50 0.48 0.48 0.55 0.62 0.70 0.80 0.81 0.89 1.00 0.93 0.82 0.86 0.90 0.84 0.73 0.62 0.53 0.51 0.54 0.52 0.55 0.60 0.62 0.53 0.45 0.45 0.48 0.52 0.57 0.57 0.53 0.51 0.49 0.45 0.44 0.45 0.44 0.44 0.43 0.40 0.37
0.60 0.53 0.53 0.55 0.54 0.57 0.69 0.84 0.98 1.07 1.19 1.36 1.37 1.13 1.02 0.99 0.90 0.79 0.69 0.61 0.59 0.57 0.55 0.53 0.53 0.54 0.55 0.53 0.49 0.48 0.52 0.60 0.60 0.59 0.56 0.49 0.44 0.43 0.41 0.38 0.36 0.36 0.34 0.31